Tracking 30995 objects as of 5-Jul-2025
HD Live streaming from Space Station
objects crossing your sky now

JILIN-01 GAOFEN 3D 29

Track JILIN-01 GAOFEN 3D 29 now!
10-day predictions


NORAD ID: 52446
Int'l Code: 2022-048D
Perigee: 459.2 km
Apogee: 465.0 km
Inclination: 97.6 °
Period: 93.7 minutes
Semi major axis: 6833 km
RCS: Unknown
Launch date: May 5, 2022
Source: People's Republic of China (PRC)
Launch site: Taiyaun Space Center, China (TSC)
Your satellite tracking list
COSMOS 480
Track 1 satellite(s)




NASA's NSSDC Master Catalog

Two Line Element Set (TLE):
1 52446U 22048D   25186.51795302  .00017975  00000-0  49815-3 0  9990
2 52446  97.5729 277.5818 0004286 189.4097 170.7068 15.37006959175746
Source of the keplerian elements: AFSPC